This is the latest recevied weather packets stored in our database for station/object K8RRT. If no packets are shown the sender has not sent any weather packets the latest 10 day(s).
| Time | Temp. | Humidity | Pressure | Rain* | Wind** | Luminosity | Snow |
|---|---|---|---|---|---|---|---|
| 1777242827 | 17.78° C | 69% | 1012.6 hPa | 0 mm | - | 187 W/m² | - |
| 1777242524 | 18.33° C | 68% | 1012.9 hPa | 0 mm | - | 184 W/m² | - |
| 1777242219 | 18.33° C | 68% | 1012.6 hPa | 0 mm | - | 199 W/m² | - |
| 1777241918 | 18.33° C | 68% | 1012.8 hPa | 0 mm | - | 209 W/m² | - |
| 1777241614 | 18.33° C | 69% | 1012.6 hPa | 0 mm | - | 234 W/m² | - |
| 1777241312 | 17.78° C | 68% | 1012.6 hPa | 0 mm | - | 240 W/m² | - |
| 1777241009 | 18.33° C | 68% | 1012.5 hPa | 0 mm | - | 265 W/m² | - |
| 1777240707 | 18.33° C | 70% | 1012.7 hPa | 0 mm | - | 278 W/m² | - |
| 1777240405 | 18.33° C | 67% | 1012.9 hPa | 0 mm | - | 276 W/m² | - |
| 1777240101 | 17.78° C | 69% | 1012.8 hPa | 0 mm | - | 321 W/m² | - |
| 1777239800 | 18.33° C | 68% | 1013 hPa | 0 mm | - | 342 W/m² | - |
| 1777239495 | 17.78° C | 69% | 1012.7 hPa | 0 mm | - | 327 W/m² | - |
| 1777239193 | 17.78° C | 69% | 1012.8 hPa | 0 mm | - | 357 W/m² | - |
| 1777238890 | 17.78° C | 69% | 1012.5 hPa | 0 mm | - | 379 W/m² | - |
| 1777238587 | 17.78° C | 69% | 1013 hPa | 0 mm | - | 393 W/m² | - |
| 1777238283 | 18.33° C | 68% | 1012.9 hPa | 0 mm | - | 412 W/m² | - |
| 1777237981 | 17.78° C | 70% | 1012.9 hPa | 0 mm | - | 448 W/m² | - |
| 1777237676 | 18.33° C | 69% | 1012.8 hPa | 0 mm | - | 478 W/m² | - |
| 1777237374 | 17.78° C | 69% | 1012.6 hPa | 0 mm | - | 473 W/m² | - |
| 1777237071 | 17.78° C | 71% | 1012.7 hPa | 0 mm | - | 465 W/m² | - |
| 1777236769 | 17.78° C | 69% | 1012.7 hPa | 0 mm | - | 505 W/m² | - |
| 1777236468 | 17.78° C | 69% | 1012.6 hPa | 0 mm | - | 293 W/m² | - |
| 1777236164 | 17.78° C | 69% | 1012.6 hPa | 0 mm | - | 545 W/m² | - |
| 1777235860 | 17.78° C | 69% | 1012.6 hPa | 0 mm | - | 586 W/m² | - |
| 1777235558 | 17.78° C | 70% | 1012.8 hPa | 0 mm | - | 581 W/m² | - |
* Rain latest hour (hover to see other rain measurements)
** Current wind speed in m/s (hover to see current wind gust speed)